DLH890 EDDF-EVRA

Flight info

Callsign DLH890
Flight time 1h 41m
Altitude 31000
Route TOBAK8M/25C TOBAK N858 FEDZA Y172 ETIDI/N0420F350 Y172 SISMI DCT ASMIG DCT RIMKO DCT FARCU DCT GORPI DCT ANFEV DCT DIPEB DCT NINTA DCT ADAXA DCT ORVIX
Aircraft A320/M-SDE2E3FGIJ1LORWXYZ/HB1

Departure

Time 2026-05-04 13:58
Airport Frankfurt Main Airport (EDDF)

Arrival

Time 2026-05-04 15:39
Airport Riga International Airport (EVRA)
Time Latitude Longitude Altitude Speed Heading
2026-05-04 12:59 50.04687 8.56700 363 ft 0 kts 115°
2026-05-04 13:02 50.04687 8.56701 356 ft 0 kts 115°
2026-05-04 13:41 50.04690 8.56690 362 ft 4 kts 115°
2026-05-04 13:42 50.04711 8.56630 360 ft 4 kts 159°
2026-05-04 13:42 50.04733 8.56636 360 ft 4 kts 208°
2026-05-04 13:42 50.04748 8.56647 363 ft 4 kts 205°
2026-05-04 13:42 50.04779 8.56672 361 ft 2 kts 205°
2026-05-04 13:43 50.04780 8.56672 361 ft 0 kts 205°
2026-05-04 13:49 50.04779 8.56671 361 ft 1 kts 205°
2026-05-04 13:49 50.04770 8.56665 363 ft 2 kts 204°
2026-05-04 13:49 50.04749 8.56643 363 ft 5 kts 225°
2026-05-04 13:50 50.04714 8.56572 362 ft 9 kts 232°
2026-05-04 13:50 50.04678 8.56490 359 ft 11 kts 249°
2026-05-04 13:50 50.04645 8.56351 356 ft 15 kts 250°
2026-05-04 13:50 50.04606 8.56187 359 ft 18 kts 250°
2026-05-04 13:51 50.04559 8.55992 358 ft 19 kts 243°
2026-05-04 13:51 50.04444 8.55917 361 ft 19 kts 196°
2026-05-04 13:51 50.04322 8.55941 359 ft 16 kts 159°
2026-05-04 13:51 50.04226 8.55926 353 ft 15 kts 200°
2026-05-04 13:52 50.04129 8.55950 355 ft 0 kts 157°
2026-05-04 13:53 50.04116 8.55959 356 ft 4 kts 157°
2026-05-04 13:53 50.04077 8.55995 356 ft 9 kts 130°
2026-05-04 13:54 50.04113 8.56220 358 ft 13 kts 70°
2026-05-04 13:54 50.04148 8.56365 358 ft 15 kts 70°
2026-05-04 13:54 50.04231 8.56713 360 ft 19 kts 70°
2026-05-04 13:55 50.04278 8.56908 361 ft 21 kts 70°
2026-05-04 13:55 50.04391 8.57381 362 ft 26 kts 69°
2026-05-04 13:55 50.04418 8.57607 364 ft 18 kts 114°
2026-05-04 13:56 50.04314 8.57700 362 ft 14 kts 162°
2026-05-04 13:56 50.04257 8.57625 362 ft 14 kts 250°
2026-05-04 13:56 50.04011 8.56611 360 ft 113 kts 249°
2026-05-04 13:57 50.03643 8.55079 356 ft 165 kts 249°
2026-05-04 13:57 50.03291 8.53505 783 ft 175 kts 248°
2026-05-04 13:58 50.00937 8.49226 3199 ft 204 kts 197°
2026-05-04 13:58 49.98140 8.48010 5202 ft 212 kts 200°
2026-05-04 13:58 49.96720 8.47371 6166 ft 213 kts 199°
2026-05-04 13:59 49.95280 8.46710 6896 ft 223 kts 198°
2026-05-04 13:59 49.93719 8.45986 7376 ft 242 kts 198°
2026-05-04 13:59 49.90741 8.43554 8954 ft 252 kts 233°
2026-05-04 14:00 49.90128 8.40989 9733 ft 262 kts 264°
2026-05-04 14:00 49.91934 8.36075 11132 ft 287 kts 330°
2026-05-04 14:00 49.93816 8.34756 11425 ft 311 kts 335°
2026-05-04 14:01 49.95891 8.33421 11645 ft 334 kts 336°
2026-05-04 14:01 49.98157 8.32204 12009 ft 351 kts 348°
2026-05-04 14:01 50.02954 8.33431 13323 ft 361 kts 32°
2026-05-04 14:02 50.04976 8.35773 13986 ft 364 kts 40°
2026-05-04 14:02 50.06990 8.38288 14607 ft 367 kts 40°
2026-05-04 14:02 50.09063 8.40899 15230 ft 371 kts 40°
2026-05-04 14:02 50.11021 8.43370 15807 ft 375 kts 40°
2026-05-04 14:03 50.13075 8.45961 16410 ft 379 kts 40°
2026-05-04 14:03 50.15131 8.48544 16991 ft 383 kts 40°
2026-05-04 14:03 50.17221 8.51163 17578 ft 387 kts 40°
2026-05-04 14:03 50.19381 8.53872 18174 ft 391 kts 40°
2026-05-04 14:04 50.23312 8.59717 19128 ft 397 kts 53°
2026-05-04 14:04 50.25014 8.63148 19629 ft 401 kts 54°
2026-05-04 14:04 50.26725 8.66627 20125 ft 404 kts 54°
2026-05-04 14:05 50.30173 8.73677 21079 ft 412 kts 54°
2026-05-04 14:05 50.31965 8.77357 21549 ft 415 kts 54°
2026-05-04 14:05 50.33737 8.80988 22017 ft 419 kts 54°
2026-05-04 14:06 50.35517 8.84627 22497 ft 423 kts 53°
2026-05-04 14:06 50.37316 8.88303 22966 ft 427 kts 54°
2026-05-04 14:06 50.39130 8.92017 23399 ft 431 kts 54°
2026-05-04 14:06 50.40957 8.95772 23786 ft 434 kts 54°
2026-05-04 14:07 50.42799 8.99564 24155 ft 437 kts 54°
2026-05-04 14:07 50.44671 9.03425 24531 ft 439 kts 54°
2026-05-04 14:07 50.46508 9.07217 24901 ft 442 kts 54°
2026-05-04 14:07 50.48380 9.11083 25271 ft 444 kts 54°
2026-05-04 14:08 50.50261 9.14976 25644 ft 447 kts 54°
2026-05-04 14:08 50.52151 9.18896 26023 ft 449 kts 53°
2026-05-04 14:08 50.54029 9.22795 26433 ft 450 kts 53°
2026-05-04 14:08 50.55929 9.26744 26805 ft 453 kts 53°
2026-05-04 14:09 50.59749 9.34711 27470 ft 458 kts 53°
2026-05-04 14:09 50.61689 9.38768 27775 ft 461 kts 53°
2026-05-04 14:10 50.65575 9.46893 28440 ft 467 kts 53°
2026-05-04 14:10 50.67532 9.50998 28755 ft 469 kts 53°
2026-05-04 14:10 50.69491 9.55118 29082 ft 471 kts 53°
2026-05-04 14:10 50.71461 9.59272 29395 ft 474 kts 53°
2026-05-04 14:11 50.73444 9.63459 29714 ft 476 kts 53°
2026-05-04 14:11 50.77443 9.71933 30272 ft 481 kts 54°
2026-05-04 14:11 50.79441 9.76180 30511 ft 483 kts 53°
2026-05-04 14:12 50.81454 9.80459 30764 ft 485 kts 53°
2026-05-04 14:12 50.83490 9.84783 30929 ft 486 kts 53°
2026-05-04 14:12 50.87431 9.93160 30967 ft 462 kts 53°
2026-05-04 14:13 50.89349 9.97259 30978 ft 458 kts 54°
2026-05-04 14:13 50.92532 10.04091 30976 ft 457 kts 53°
2026-05-04 14:14 50.96329 10.12241 30976 ft 457 kts 53°
2026-05-04 14:14 51.01981 10.24442 30977 ft 457 kts 54°
2026-05-04 14:15 51.10646 10.38944 30972 ft 453 kts 31°
2026-05-04 14:16 51.18574 10.47275 30973 ft 453 kts 31°
2026-05-04 14:17 51.26449 10.55627 30963 ft 453 kts 31°
2026-05-04 14:17 51.31753 10.61264 31125 ft 464 kts 31°
2026-05-04 14:18 51.34455 10.64144 31263 ft 470 kts 31°
2026-05-04 14:18 51.39932 10.70077 31571 ft 480 kts 33°
2026-05-04 14:19 51.45327 10.76533 32182 ft 481 kts 36°
2026-05-04 14:19 51.47961 10.79838 32533 ft 480 kts 36°
2026-05-04 14:19 51.50600 10.83153 32893 ft 479 kts 36°
2026-05-04 14:19 51.53162 10.86526 33254 ft 479 kts 41°
2026-05-04 14:20 51.55527 10.90316 33632 ft 479 kts 43°
2026-05-04 14:20 51.57786 10.94002 33980 ft 478 kts 43°
2026-05-04 14:20 51.60225 10.97971 34300 ft 477 kts 43°
2026-05-04 14:21 51.64825 11.05457 34833 ft 476 kts 43°
2026-05-04 14:21 51.67092 11.09160 35081 ft 476 kts 43°
2026-05-04 14:21 51.69539 11.13174 35338 ft 476 kts 44°
2026-05-04 14:21 51.71853 11.16985 35577 ft 476 kts 44°
2026-05-04 14:22 51.74167 11.20801 35809 ft 475 kts 44°
2026-05-04 14:22 51.76479 11.24615 36051 ft 475 kts 43°
2026-05-04 14:22 51.78821 11.28481 36280 ft 475 kts 43°
2026-05-04 14:22 51.81107 11.32258 36496 ft 475 kts 43°
2026-05-04 14:23 51.85696 11.39858 36912 ft 475 kts 44°
2026-05-04 14:23 51.88035 11.43750 36977 ft 475 kts 44°
2026-05-04 14:24 51.92635 11.51426 36975 ft 475 kts 44°
2026-05-04 14:24 51.97275 11.59095 36975 ft 474 kts 41°
2026-05-04 14:25 52.02106 11.66397 36971 ft 474 kts 39°
2026-05-04 14:25 52.09469 11.77170 36968 ft 474 kts 39°
2026-05-04 14:26 52.14306 11.84447 36965 ft 474 kts 40°
2026-05-04 14:26 52.19115 11.91791 36970 ft 474 kts 40°
2026-05-04 14:27 52.23954 11.99186 36974 ft 473 kts 40°
2026-05-04 14:27 52.28801 12.06579 36971 ft 473 kts 40°
2026-05-04 14:28 52.33610 12.13937 36974 ft 473 kts 40°
2026-05-04 14:28 52.38381 12.21267 36991 ft 473 kts 40°
2026-05-04 14:29 52.47984 12.36073 36966 ft 473 kts 40°
2026-05-04 14:30 52.52802 12.43545 36961 ft 473 kts 40°
2026-05-04 14:31 52.59993 12.54739 36971 ft 474 kts 40°
2026-05-04 14:32 52.69679 12.69537 36956 ft 470 kts 32°
2026-05-04 14:32 52.74925 12.75939 36957 ft 469 kts 32°
2026-05-04 14:33 52.80142 12.82341 36966 ft 469 kts 33°
2026-05-04 14:33 52.85395 12.88822 36963 ft 469 kts 33°
2026-05-04 14:34 52.89763 12.94223 36962 ft 469 kts 33°
2026-05-04 14:34 52.94992 13.00707 36962 ft 469 kts 33°
2026-05-04 14:35 53.00230 13.07217 36975 ft 470 kts 33°
2026-05-04 14:35 53.05430 13.13702 36980 ft 470 kts 33°
2026-05-04 14:36 53.10693 13.20286 36970 ft 470 kts 33°
2026-05-04 14:36 53.15923 13.26845 36963 ft 470 kts 33°
2026-05-04 14:37 53.21133 13.33407 36962 ft 470 kts 33°
2026-05-04 14:37 53.26360 13.40018 36976 ft 470 kts 33°
2026-05-04 14:38 53.31553 13.46583 36961 ft 470 kts 33°
2026-05-04 14:38 53.36769 13.53192 36960 ft 470 kts 33°
2026-05-04 14:39 53.41947 13.59798 36959 ft 469 kts 33°
2026-05-04 14:39 53.47142 13.66446 36973 ft 469 kts 34°
2026-05-04 14:40 53.54916 13.76451 36961 ft 469 kts 33°
2026-05-04 14:40 53.60107 13.83123 36953 ft 469 kts 34°
2026-05-04 14:41 53.65287 13.89828 36946 ft 469 kts 34°
2026-05-04 14:42 53.75629 14.03263 36965 ft 468 kts 34°
2026-05-04 14:42 53.80759 14.09942 36958 ft 467 kts 34°
2026-05-04 14:43 53.85911 14.16685 36953 ft 467 kts 34°
2026-05-04 14:43 53.91055 14.23474 36976 ft 467 kts 35°
2026-05-04 14:44 53.96131 14.30405 36945 ft 468 kts 36°
2026-05-04 14:44 54.01160 14.37373 36924 ft 469 kts 36°
2026-05-04 14:45 54.06238 14.44382 36931 ft 469 kts 36°
2026-05-04 14:45 54.11289 14.51356 36940 ft 469 kts 36°
2026-05-04 14:46 54.16373 14.58392 36952 ft 470 kts 36°
2026-05-04 14:46 54.21470 14.65469 36938 ft 471 kts 36°
2026-05-04 14:47 54.26527 14.72514 36939 ft 472 kts 36°
2026-05-04 14:47 54.31622 14.79642 36942 ft 472 kts 36°
2026-05-04 14:48 54.36726 14.86806 36958 ft 473 kts 36°
2026-05-04 14:48 54.41825 14.94008 36943 ft 474 kts 36°
2026-05-04 14:49 54.46996 15.01314 36936 ft 474 kts 36°
2026-05-04 14:49 54.52104 15.08550 36938 ft 475 kts 36°
2026-05-04 14:50 54.57212 15.15813 36980 ft 475 kts 37°
2026-05-04 14:50 54.62351 15.23152 36945 ft 477 kts 37°
2026-05-04 14:51 54.67452 15.30467 36926 ft 478 kts 37°
2026-05-04 14:51 54.72584 15.37840 36921 ft 478 kts 37°
2026-05-04 14:52 54.77708 15.45227 36930 ft 479 kts 37°
2026-05-04 14:52 54.82837 15.52648 36938 ft 479 kts 37°
2026-05-04 14:53 54.87965 15.60088 36930 ft 480 kts 37°
2026-05-04 14:53 54.93007 15.67852 36917 ft 482 kts 43°
2026-05-04 14:54 54.97695 15.76214 36907 ft 482 kts 43°
2026-05-04 14:54 55.02391 15.84585 36907 ft 482 kts 43°
2026-05-04 14:55 55.07095 15.92971 36906 ft 483 kts 43°
2026-05-04 14:55 55.11790 16.01403 36913 ft 483 kts 43°
2026-05-04 14:56 55.16462 16.09837 36918 ft 484 kts 43°
2026-05-04 14:56 55.21150 16.18309 36923 ft 484 kts 43°
2026-05-04 14:57 55.25831 16.26794 36937 ft 484 kts 43°
2026-05-04 14:57 55.30520 16.35338 36914 ft 484 kts 43°
2026-05-04 14:58 55.34399 16.42428 36901 ft 485 kts 44°
2026-05-04 14:58 55.39081 16.51007 36900 ft 485 kts 44°
2026-05-04 14:59 55.43739 16.59578 36899 ft 486 kts 44°
2026-05-04 15:00 55.50759 16.72556 36900 ft 486 kts 43°
2026-05-04 15:00 55.55422 16.81217 36898 ft 486 kts 44°
2026-05-04 15:01 55.62409 16.94241 36893 ft 486 kts 44°
2026-05-04 15:01 55.67030 17.02890 36909 ft 486 kts 44°
2026-05-04 15:02 55.71620 17.11528 36890 ft 486 kts 44°
2026-05-04 15:02 55.76325 17.20439 36876 ft 486 kts 44°
2026-05-04 15:03 55.80979 17.29208 36875 ft 486 kts 43°
2026-05-04 15:03 55.85718 17.37785 36869 ft 485 kts 42°
2026-05-04 15:04 55.90480 17.46326 36886 ft 485 kts 42°
2026-05-04 15:04 55.95212 17.54947 36872 ft 485 kts 42°
2026-05-04 15:05 55.99891 17.63574 36866 ft 485 kts 43°
2026-05-04 15:05 56.04592 17.72266 36856 ft 485 kts 43°
2026-05-04 15:06 56.09308 17.80996 36879 ft 485 kts 43°
2026-05-04 15:07 56.16186 17.94333 36853 ft 488 kts 52°
2026-05-04 15:07 56.19319 18.05138 36820 ft 491 kts 71°
2026-05-04 15:08 56.21152 18.16984 36828 ft 492 kts 75°
2026-05-04 15:08 56.22926 18.28860 36820 ft 492 kts 76°
2026-05-04 15:09 56.24462 18.40849 36642 ft 499 kts 79°
2026-05-04 15:09 56.25132 18.46981 36330 ft 499 kts 80°
2026-05-04 15:09 56.25769 18.53130 36017 ft 498 kts 80°
2026-05-04 15:10 56.27052 18.65370 35430 ft 495 kts 79°
2026-05-04 15:10 56.27723 18.71471 35123 ft 494 kts 79°
2026-05-04 15:10 56.29072 18.83576 34547 ft 492 kts 78°
2026-05-04 15:11 56.29785 18.89582 34272 ft 490 kts 74°
2026-05-04 15:11 56.30833 18.95404 33980 ft 488 kts 69°
2026-05-04 15:11 56.31942 19.01185 33680 ft 487 kts 69°
2026-05-04 15:11 56.33042 19.06948 33347 ft 485 kts 70°
2026-05-04 15:12 56.34134 19.12719 33011 ft 484 kts 70°
2026-05-04 15:12 56.35214 19.18477 32697 ft 482 kts 70°
2026-05-04 15:12 56.36271 19.24142 32380 ft 481 kts 70°
2026-05-04 15:12 56.37338 19.29864 32064 ft 480 kts 70°
2026-05-04 15:13 56.38400 19.35563 31715 ft 478 kts 71°
2026-05-04 15:13 56.39469 19.41327 31406 ft 477 kts 71°
2026-05-04 15:13 56.40508 19.46945 31138 ft 476 kts 71°
2026-05-04 15:13 56.41555 19.52615 30830 ft 474 kts 71°
2026-05-04 15:14 56.42595 19.58256 30533 ft 473 kts 71°
2026-05-04 15:14 56.43633 19.63910 30239 ft 472 kts 71°
2026-05-04 15:14 56.44663 19.69533 29953 ft 471 kts 71°
2026-05-04 15:14 56.45689 19.75160 29605 ft 469 kts 72°
2026-05-04 15:15 56.46705 19.80748 29261 ft 466 kts 72°
2026-05-04 15:15 56.47712 19.86307 28927 ft 463 kts 72°
2026-05-04 15:15 56.48714 19.91848 28585 ft 460 kts 72°
2026-05-04 15:16 56.50692 20.02814 27925 ft 454 kts 72°
2026-05-04 15:16 56.51665 20.08251 27574 ft 453 kts 72°
2026-05-04 15:16 56.53608 20.19150 26929 ft 448 kts 72°
2026-05-04 15:17 56.54560 20.24510 26658 ft 445 kts 72°
2026-05-04 15:17 56.56432 20.35099 26049 ft 437 kts 72°
2026-05-04 15:17 56.57343 20.40275 25745 ft 434 kts 72°
2026-05-04 15:18 56.58270 20.45539 25436 ft 431 kts 72°
2026-05-04 15:18 56.59177 20.50705 25142 ft 428 kts 72°
2026-05-04 15:18 56.60078 20.55852 24848 ft 426 kts 72°
2026-05-04 15:19 56.61863 20.66122 24275 ft 421 kts 72°
2026-05-04 15:19 56.62741 20.71194 23994 ft 418 kts 72°
2026-05-04 15:19 56.64454 20.81135 23410 ft 416 kts 72°
2026-05-04 15:20 56.65338 20.86281 23075 ft 414 kts 72°
2026-05-04 15:20 56.66197 20.91275 22753 ft 412 kts 72°
2026-05-04 15:20 56.67047 20.96236 22414 ft 410 kts 72°
2026-05-04 15:20 56.67889 21.01180 22095 ft 408 kts 72°
2026-05-04 15:21 56.68724 21.06099 21800 ft 406 kts 73°
2026-05-04 15:21 56.69551 21.10984 21481 ft 402 kts 73°
2026-05-04 15:21 56.70916 21.19091 20958 ft 398 kts 73°
2026-05-04 15:22 56.71741 21.23994 20633 ft 396 kts 73°
2026-05-04 15:22 56.72545 21.28785 20349 ft 395 kts 73°
2026-05-04 15:22 56.74246 21.38963 19847 ft 445 kts 73°
2026-05-04 15:23 56.75170 21.44527 19552 ft 467 kts 73°
2026-05-04 15:23 56.76119 21.50269 19226 ft 488 kts 73°
2026-05-04 15:23 56.77122 21.56343 18932 ft 495 kts 73°
2026-05-04 15:23 56.78126 21.62442 18638 ft 494 kts 73°
2026-05-04 15:24 56.80086 21.74428 18055 ft 490 kts 73°
2026-05-04 15:24 56.82035 21.86404 17404 ft 486 kts 73°
2026-05-04 15:25 56.82993 21.92314 17081 ft 484 kts 73°
2026-05-04 15:25 56.83931 21.98125 16757 ft 482 kts 73°
2026-05-04 15:25 56.84898 22.04137 16449 ft 479 kts 73°
2026-05-04 15:26 56.86752 22.15724 15830 ft 475 kts 74°
2026-05-04 15:26 56.87674 22.21532 15505 ft 473 kts 74°
2026-05-04 15:26 56.89488 22.33073 14914 ft 469 kts 74°
2026-05-04 15:27 56.90389 22.38814 14624 ft 467 kts 74°
2026-05-04 15:27 56.92236 22.50172 13978 ft 463 kts 73°
2026-05-04 15:28 56.94136 22.61515 13069 ft 446 kts 73°
2026-05-04 15:28 56.95027 22.66878 12702 ft 434 kts 73°
2026-05-04 15:28 56.96724 22.77233 11991 ft 414 kts 73°
2026-05-04 15:29 56.97544 22.82271 11637 ft 405 kts 73°
2026-05-04 15:30 57.00618 23.01418 10221 ft 376 kts 75°
2026-05-04 15:30 57.00608 23.15379 9013 ft 359 kts 98°
2026-05-04 15:31 57.00105 23.24423 8187 ft 353 kts 98°
2026-05-04 15:31 56.99854 23.28878 7782 ft 349 kts 98°
2026-05-04 15:32 56.99520 23.42066 6592 ft 340 kts 91°
2026-05-04 15:32 56.99586 23.50613 5927 ft 329 kts 90°
2026-05-04 15:33 56.99636 23.57538 5496 ft 316 kts 91°
2026-05-04 15:34 56.99989 23.70414 4838 ft 284 kts 76°
2026-05-04 15:34 57.00314 23.72730 4845 ft 272 kts 75°
2026-05-04 15:34 57.01354 23.79340 4192 ft 275 kts 72°
2026-05-04 15:35 57.02467 23.86041 3180 ft 271 kts 73°
2026-05-04 15:35 57.03012 23.89327 2735 ft 265 kts 72°
2026-05-04 15:35 57.03554 23.92638 2331 ft 258 kts 76°
2026-05-04 15:36 57.02873 23.98058 2284 ft 198 kts 153°
2026-05-04 15:36 57.01706 23.98674 2212 ft 161 kts 191°
2026-05-04 15:36 57.00644 23.98435 1892 ft 148 kts 193°
2026-05-04 15:37 56.99650 23.98277 1617 ft 138 kts 193°
2026-05-04 15:37 56.98707 23.98133 1371 ft 134 kts 193°
2026-05-04 15:37 56.97763 23.97981 1133 ft 135 kts 193°
2026-05-04 15:37 56.96748 23.97820 941 ft 136 kts 191°
2026-05-04 15:38 56.95708 23.97685 612 ft 132 kts 191°
2026-05-04 15:38 56.94813 23.97524 354 ft 133 kts 190°
2026-05-04 15:38 56.94187 23.97427 205 ft 132 kts 188°
2026-05-04 15:38 56.93261 23.97261 56 ft 129 kts 191°
2026-05-04 15:39 56.92314 23.97094 45 ft 72 kts 184°
2026-05-04 15:39 56.91961 23.97060 43 ft 42 kts 176°
2026-05-04 15:39 56.91717 23.97276 44 ft 8 kts 110°
2026-05-04 15:40 56.91711 23.97365 44 ft 6 kts 90°
2026-05-04 15:40 56.91713 23.97381 44 ft 1 kts 70°
2026-05-04 15:40 56.91725 23.97401 42 ft 3 kts 32°
2026-05-04 15:40 56.91743 23.97409 44 ft 2 kts
2026-05-04 15:41 56.91765 23.97413 44 ft 4 kts
2026-05-04 15:41 56.91804 23.97419 44 ft 7 kts
2026-05-04 15:41 56.91861 23.97426 43 ft 9 kts
2026-05-04 15:41 56.91933 23.97435 44 ft 11 kts
2026-05-04 15:42 56.92014 23.97441 44 ft 11 kts
2026-05-04 15:42 56.92094 23.97455 44 ft 11 kts
2026-05-04 15:42 56.92142 23.97516 44 ft 9 kts 83°
2026-05-04 15:42 56.92136 23.97618 42 ft 8 kts 96°
2026-05-04 15:43 56.92131 23.97707 44 ft 6 kts 96°
2026-05-04 15:43 56.92160 23.97739 44 ft 4 kts
2026-05-04 15:43 56.92180 23.97741 44 ft 2 kts
2026-05-04 15:43 56.92189 23.97742 42 ft 1 kts
2026-05-04 15:44 56.92194 23.97743 43 ft 0 kts